sat.trackr.live / text

‹ back to catalog

UNKNOWN

NORAD 87300

UNKNOWN UNKNOWN UNKNOWN

§ Identity

Operator
Country
Launch date
Launch site
Launch vehicle
Mass (kg)
RCS (m²)

External: N2YO · Heavens-Above

§ Orbital elements

Epoch: 2026-09-16T07:38:29.703840Z

Period
102.84 min
Inclination
100.0897°
Eccentricity
0.0025232
Mean motion
14.00204202 rev/d
Perigee alt
874.7 km
Apogee alt
911.4 km
Semi-major
7,271.2 km
B*
7.8411e-4
RAAN
275.0872°
Arg perigee
270.5311°
Mean anomaly
89.2959°
Rev number
65,195

§ Raw data

UNKNOWN1 87300U          26259.31839935  .00001108  00000+0  78411-3 0  99962 87300 100.0897 275.0872 0025232 270.5311  89.2959 14.00204202651952

JSON: /api/v1/satellites/87300 · /tle

For live sub-satellite position, see the globe view (requires WebGL).

§ Visibility from observer

Set your observer location to see the next 7 days of passes ≥ 10°. The values pass through the URL so the page stays shareable.

No JS? Fill the form by hand. The geolocation button needs JavaScript.